weather.gov     
National Weather Service

Regional Weather Roundup
NWS Homepage
This page is being discontinued on March 12, 2014.
The same data is available at this site. Please update your bookmarks.
Thank you, and we apologize for the inconvenience.
Please send an email to SR-SRH.Webmaster@noaa.gov with any concerns.


Current Version
Previous Version:    01  02  03  04  05  06  07  08  09  10  11  12  13  14  15  16  17  18  19  20  21  22  23  24  25  26  
[Printable]
354
ASPQ40 PGUM 312112
RWRPQ
WEATHER ROUNDUP FOR THE MARIANAS AND MICRONESIA
NATIONAL WEATHER SERVICE TIYAN GU
700 AM CHST FRI AUG 01 2014

GUZ001>004-312200-
MARIANA ISLANDS-

CITY           SKY/WX    TMP DP  RH WIND       PRES   REMARKS
GUAM AIRPORT   PTSUNNY   81  79  94 CALM      29.84R
ANDERSEN AFB   CLOUDY    79  75  89 S9        29.84R
ROTA AIRPORT   PTSUNNY   79  75  89 SE7       29.84
TINIAN AP      PTSUNNY   77  75  94 SE5       29.82R
SAIPAN AP      MOSUNNY   81  75  83 S5        29.83R

$$

PMZ161-312200-
REPUBLIC OF PALAU-

CITY           SKY/WX    TMP DP  RH WIND       PRES   REMARKS
KOROR AP       NOT AVBL
KOROR WSO      CLOUDY    82  77  83 S14       29.83R HX  91

$$

PMZ171>174-312200-
FEDERATED STATES OF MICRONESIA-

CITY           SKY/WX    TMP DP  RH WIND       PRES   REMARKS
YAP AIRPORT    CLOUDY    81  75  83 SW8       29.80F
CHUUK AP       LGT RAIN  77  75  94 VRB6      29.82S
POHNPEI AP     NOT AVBL
POHNPEI WSO    MOSUNNY   82  79  89 S3        29.85R HX  93
KOSRAE AP      CLOUDY    81  75  83 E6        29.84

$$

PMZ181-312200-
REPUBLIC OF THE MARSHALL ISLANDS-

CITY           SKY/WX    TMP DP  RH WIND       PRES   REMARKS
KWAJALEIN AP   MOSUNNY   84  73  70 SE3       29.87R HX  91
MAJURO AP      NOT AVBL
MAJURO WSO     MOSUNNY   84  77  79 CALM      29.85S HX  94

$$





U.S. Dept. of Commerce
NOAA National Weather Service
1325 East West Highway
Silver Spring, MD 20910
E-mail: w-nws.webmaster@noaa.gov
Page last modified: May 16, 2007
NATIONAL WEATHER SERVICE: for Safety, for Work, for Fun - FOR LIFE